Location: Unspecified
(17.6330°N, 0.0000°E)
Time: 00:08:38
(UTC+00:00)

A-11 Canister half - Pass Details

Date: 18 June 2019
Orbit: 1514 x 1685 km, 47.2° (Epoch: 19 July)

Event Time Altitude Azimuth Distance (km) Brightness Sun altitude
Rises 08:42:25 0° 206° (SSW) 4,929 11.4 43.3°
Reaches altitude 10° 08:45:45 10° 200° (SSW) 3,938 11.0 44.1°
Maximum altitude 08:55:23 49° 129° (SE) 2,046 10.8 46.3°
Drops below altitude 10° 09:04:46 10° 57° (ENE) 3,860 12.0 48.5°
Sets 09:07:59 0° 52° (NE) 4,824 12.2 49.2°
